Location: Peterborough
(44.3091°N, 78.3197°W)
Time: 00:18:25
(UTC-04:00)

S-56A Canister/Altair - Pass Details

Date: 31 March 2023
Orbit: 639 x 2492 km, 38.9° (Epoch: 02 June)

Event Time Altitude Azimuth Distance (km) Brightness Sun altitude
Rises 01:22:13 0° 283° (WNW) 5,897 12.2 -41.6°
Reaches altitude 10° 01:26:47 10° 273° (W) 5,038 11.6 -41.6°
Enters shadow 01:31:23 20° 257° (WSW) 4,355 11.1 -41.5°
